Starlink 32033

operational
NORAD ID: 60144 Int'l Des: 2024-120 Owner: SPXS Country: US Constellation: starlink
LEOCIRCULAR

About Starlink 32033

Description loading...

Live Position

Loading 3D Globe...

Upcoming Passes

Altitude History

Altitude vs Time

uPlot chart will show altitude changes over time

Two-Line Element Set

1 60144U 24120K 25258.70737443 -.00000244 00000-0 38699-5 0 9992
2 60144 53.1612 52.8373 0001107 77.3359 282.7766 15.30193625 69587
Epoch: Sep 15, 2025 • Age: 17 hours

Current Status

Altitude 485.4 km
Velocity 7.62 km/s
Sub-Earth Point -31.19°S, 116.68°E
Launch Date Jun 27, 2024
Age 1.2 years
Type internet

Technical Details

Classification Payload
Mass 730.00 kg
Dry Mass 700.00 kg
Total Mass 730.00 kg
Length 0.30 m
Diameter 4.10 m
Span 29.00 m
Shape Box + pan
Manufacturer SPXS
Bus Type Starlink V2M
Phase Status In Orbit
Owner/State SPXS/US

Large Constellations

Loading constellations...